Torna al catalogo

AMC-4

GE-4

AttivoComunicazioniGEO
NORAD 25954·PAYLOAD·🇱🇺 Luxembourg

Lanciato Nov 13, 1999 da Guiana Space Centre

Loading…

TLE

AggiornatoSource: Space-Track

Epoca: Sep 14, 2026, 13:18 UTC

1 25954U 99060A   26257.55451747  .00000023  00000-0  00000-0 0  9994
2 25954   5.4782  72.7738 0005480 142.3853 233.9911  0.99131385 44308

Traccia AMC-4 in tempo reale con AllMySat

Download on the App Store